User: anonymous   Login
Location: Newark
(54.6833°N, 25.2833°E)
Time: 06:54:57
(UTC+00:00)
Language:

Tiros 1 despin weight - Orbit

View from above orbital plane
View from above orbital plane
View from above satellite
View from above satellite

Ground track
Ground track

The orbit data is extracted from the following two-line orbital elements,

1   115U 60002D   19326.07540975 -.00000020  00000-0  24848-4 0  9996
2   115  48.1653 196.1810 0034370  50.0641 310.3283 14.83510465182036
Epoch (UTC): 22 November 2019 01:48:35
Eccentricity: 0.0034370
inclination: 48.1653°
perigee height: 594 km
apogee height: 642 km
right ascension of ascending node: 196.1810°
argument of perigee: 50.0641°
revolutions per day: 14.83510465
mean anomaly at epoch: 310.3283°
orbit number at epoch: 18203

The dashed part of the orbit path shows where the satellite is in the earth's shadow,  

DLR